Glasgow, MT

1:08 AM MDT on September 26, 2016 (GMT -0600)
Wokal-Glasgow International

Weather History for KGGW - April, 2013

Change the Weather History Date:

Tuesday, April 2, 2013

  Actual Average Record
Temperature  
Mean Temperature 41 °F 40 °F  
Max Temperature 57 °F 52 °F 78 °F (1992)
Min Temperature 25 °F 28 °F -5 °F (1936)
Degree Days  
Heating Degree Days 24 25  
Month to date heating degree days 54 51  
Since 1 July heating degree days 7517 7455  
Cooling Degree Days 0 0  
Month to date cooling degree days 0 0  
Year to date cooling degree days 0 0  
Moisture  
Dew Point 30 °F    
Average Humidity 66    
Maximum Humidity 92    
Minimum Humidity 40    
Precipitation  
Precipitation 0.00 in 0.02 in 0.48 in (1906)
Month to date precipitation 0.00 0.04  
Year to date precipitation 1.66 1.09  
Snow  
Snow 0.00 in 0.10 in 14.10 in (1940)
Month to date snowfall 0.0 0.2  
Since 1 July snowfall 50.6 31.9  
Snow Depth 0.00 in    
Sea Level Pressure  
Sea Level Pressure 30.09 in    
Wind  
Wind Speed 14 mph (ESE)    
Max Wind Speed 24 mph    
Max Gust Speed 28 mph    
Visibility 10 miles    
Events      
T = Trace of Precipitation, MM = Missing Value Source: NWS Daily Summary

Daily Weather History Graph

Daily Weather History Graph

Search for Another Location

Airport or City:

Trip Planner

Search our weather history database for the weather conditions in past years. The results will help you decide how hot, cold, wet, or windy it might be!

Date:

Astronomy

Apr. 02, 2013 Rise Set
Actual Time 6:41 AM MDT 7:38 PM MDT
Civil Twilight 6:10 AM MDT 8:10 PM MDT
Nautical Twilight 5:32 AM MDT 8:48 PM MDT
Astronomical Twilight 4:52 AM MDT 9:28 PM MDT
Moon 2:05 AM MDT (4/2) 11:17 AM MDT (4/2)
Length of Visible Light 14h 00m
Length of Day
12h 56m
Waning Gibbous, 55% of the Moon is Illuminated
Apr 2
Waning Gibbous
Apr 2
Last Quarter
Apr 10
New
Apr 18
First Quarter
Apr 25
Full

Hourly Weather History & Observations

Time (MDT) Temp. Windchill Dew Point Humidity Pressure Visibility Wind Dir Wind Speed Gust Speed Precip Events Conditions
12:53 AM 28.0 °F 20.0 °F 25.0 °F 88% 30.24 in 10.0 mi East 8.1 mph - N/A   Clear
1:53 AM 27.0 °F 18.7 °F 24.1 °F 89% 30.22 in 10.0 mi East 8.1 mph - N/A   Clear
2:53 AM 27.0 °F 18.7 °F 24.1 °F 89% 30.22 in 10.0 mi East 8.1 mph - N/A   Clear
3:53 AM 27.0 °F 18.0 °F 24.1 °F 89% 30.20 in 10.0 mi East 9.2 mph - N/A   Clear
4:53 AM 26.1 °F 19.4 °F 23.0 °F 88% 30.21 in 10.0 mi East 5.8 mph - N/A   Clear
5:53 AM 26.1 °F 17.6 °F 23.0 °F 88% 30.21 in 10.0 mi East 8.1 mph - N/A   Clear
6:53 AM 25.0 °F 15.5 °F 23.0 °F 92% 30.22 in 8.0 mi ESE 9.2 mph - N/A   Clear
7:53 AM 27.0 °F 16.7 °F 24.1 °F 89% 30.23 in 7.0 mi ESE 11.5 mph - N/A   Clear
8:53 AM 32.0 °F 22.1 °F 28.0 °F 85% 30.22 in 8.0 mi ESE 13.8 mph - N/A   Clear
9:53 AM 35.1 °F 24.8 °F 27.0 °F 72% 30.21 in 10.0 mi ESE 17.3 mph - N/A   Clear
10:53 AM 37.9 °F 27.1 °F 27.0 °F 65% 30.19 in 10.0 mi ESE 23.0 mph - N/A   Clear
11:53 AM 41.0 °F 32.5 °F 30.0 °F 65% 30.18 in 10.0 mi ESE 17.3 mph - N/A   Clear
12:53 PM 45.0 °F 37.4 °F 32.0 °F 60% 30.13 in 10.0 mi ESE 18.4 mph - N/A   Clear
1:53 PM 48.9 °F - 33.1 °F 54% 30.10 in 10.0 mi SE 16.1 mph - N/A   Clear
2:53 PM 53.1 °F - 33.1 °F 47% 30.06 in 10.0 mi SE 13.8 mph - N/A   Clear
3:53 PM 55.9 °F - 34.0 °F 44% 30.02 in 10.0 mi SE 17.3 mph - N/A   Clear
4:53 PM 57.0 °F - 34.0 °F 42% 30.00 in 10.0 mi ESE 16.1 mph - N/A   Clear
5:53 PM 55.9 °F - 35.1 °F 45% 29.97 in 10.0 mi East 18.4 mph - N/A   Clear
6:53 PM 50.0 °F - 37.0 °F 61% 29.96 in 10.0 mi ESE 16.1 mph - N/A   Clear
7:53 PM 44.1 °F 37.1 °F 35.1 °F 71% 29.94 in 10.0 mi East 15.0 mph - N/A   Clear
8:53 PM 43.0 °F 36.0 °F 34.0 °F 71% 29.93 in 10.0 mi ESE 13.8 mph - N/A   Clear
9:53 PM 41.0 °F 33.1 °F 33.1 °F 73% 29.92 in 10.0 mi ESE 15.0 mph - N/A   Clear
10:53 PM 41.0 °F 33.9 °F 33.1 °F 73% 29.90 in 10.0 mi ESE 12.7 mph - N/A   Mostly Cloudy
11:53 PM 42.1 °F 34.9 °F 32.0 °F 67% 29.88 in 10.0 mi ESE 13.8 mph - N/A   Overcast